EW5975 Weather Reports


time (UTC)temp
C
wind
direction
speed
KPH
gust
KPH
rain 1hr
cm
rain 24hr
cm
rain mn
cm
humidity
%
barometer
mb
20260507232015 11 0.0 0.0 0.00 0.00 0.00 85 1013.7
20260507231016 11 0.0 0.0 0.00 0.00 0.00 84 1013.7
20260507230015 11 0.0 0.0 0.00 0.00 0.00 84 1013.7
20260507225015 11 0.0 0.0 0.00 0.00 0.00 84 1013.7
20260507224018 11 0.0 0.0 0.00 0.00 0.00 84 1013.8
20260507223017 11 0.0 0.0 0.00 0.00 0.00 84 1013.7
20260507222017 11 0.0 0.0 0.00 0.00 0.00 84 1013.8
20260507221017 11 0.0 0.0 0.00 0.00 0.00 83 1013.8
20260507220017 11 0.0 0.0 0.00 0.00 0.00 83 1013.8
20260507215017 11 0.0 0.0 0.00 0.00 0.00 83 1013.6
20260507214019 12 0.0 0.0 0.00 0.00 0.00 83 1013.6
20260507213037 12 0.0 0.0 0.00 0.00 0.00 83 1013.6
20260507212017 12 0.0 0.0 0.00 0.00 0.00 83 1013.5
20260507211017 12 0.0 1.6 0.00 0.00 0.00 83 1013.6
20260507210017 12 0.0 0.0 0.00 0.00 0.00 82 1013.4
20260507205017 12 0.0 0.0 0.00 0.00 0.00 82 1013.4
20260507204017 12 0.0 0.0 0.00 0.00 0.00 82 1013.4
20260507203017 12 0.0 0.0 0.00 0.00 0.00 82 1013.3
20260507202037 12 0.0 1.6 0.00 0.00 0.00 81 1013.2
20260507201017 12 0.0 1.6 0.00 0.00 0.00 81 1013.1
20260507200018 13 0.0 0.0 0.00 0.00 0.00 81 1013.0
20260507195017 13 0.0 0.0 0.00 0.00 0.00 81 1013.0
20260507194017 13 0.0 0.0 0.00 0.00 0.00 81 1013.1
20260507193018 13 0.0 0.0 0.00 0.00 0.00 80 1013.0
20260507192017 13 0.0 0.0 0.00 0.00 0.00 79 1012.8
20260507191038 13 0.0 0.0 0.00 0.00 0.00 78 1012.7
20260507190017 14 0.0 0.0 0.00 0.00 0.00 78 1012.5
20260507185017 14 0.0 0.0 0.00 0.00 0.00 77 1012.2
20260507184017 15 0.0 0.0 0.00 0.00 0.00 76 1012.3
20260507183017 15 0.0 0.0 0.00 0.00 0.00 76 1012.1
20260507182017 15 0.0 1.6 0.00 0.00 0.00 76 1012.0
20260507181017 15 0.0 0.0 0.00 0.00 0.00 75 1012.0
20260507180016 15 0.0 1.6 0.00 0.00 0.00 75 1012.0
20260507175017 16 0.0 0.0 0.00 0.00 0.00 73 1012.0
20260507174018 16 0.0 1.6 0.00 0.00 0.00 71 1011.9
20260507173037 17 0.0 0.0 0.00 0.00 0.00 68 1011.9
20260507172017 17 0.0 0.0 0.00 0.00 0.00 67 1011.9
20260507171037 18 0.0 3.2 0.00 0.00 0.00 66 1012.0
20260507170017 18 225 1.6 4.8 0.00 0.00 0.00 64 1012.0
20260507165017 18 180 1.6 4.8 0.00 0.00 0.00 65 1011.9
20260507164017 18 113 1.6 4.8 0.00 0.00 0.00 63 1011.9
20260507163016 18 135 1.6 6.4 0.00 0.00 0.00 65 1011.9
20260507162017 18 113 1.6 4.8 0.00 0.00 0.00 65 1011.9
20260507161037 18 135 1.6 3.2 0.00 0.00 0.00 63 1011.8
20260507160016 18 113 1.6 3.2 0.00 0.00 0.00 64 1011.9
20260507155018 18 0.0 3.2 0.00 0.00 0.00 63 1011.9
20260507154037 18 135 1.6 4.8 0.00 0.00 0.00 62 1011.7
20260507153018 18 158 1.6 4.8 0.00 0.00 0.00 61 1011.5
20260507152016 18 113 1.6 4.8 0.00 0.00 0.00 61 1011.6
20260507151016 18 135 1.6 6.4 0.00 0.00 0.00 61 1011.5
20260507150016 18 113 1.6 4.8 0.00 0.00 0.00 64 1011.6
20260507145016 18 113 1.6 4.8 0.00 0.00 0.00 64 1011.7
20260507144016 18 135 1.6 4.8 0.00 0.00 0.00 64 1011.8
20260507143017 18 135 1.6 4.8 0.00 0.00 0.00 63 1011.8
20260507142016 18 135 1.6 4.8 0.00 0.00 0.00 63 1011.9
20260507141016 18 113 1.6 8.0 0.00 0.00 0.00 62 1011.9
20260507140016 18 135 3.2 8.0 0.00 0.00 0.00 64 1011.9
20260507135016 18 135 1.6 6.4 0.00 0.00 0.00 62 1012.0
20260507134016 18 113 1.6 4.8 0.00 0.00 0.00 61 1012.0
20260507133016 19 135 1.6 4.8 0.00 0.00 0.00 59 1012.2
20260507132016 19 113 1.6 8.0 0.00 0.00 0.00 57 1012.3
20260507131016 19 113 3.2 6.4 0.00 0.00 0.00 55 1012.3
20260507130016 20 113 1.6 8.0 0.00 0.00 0.00 55 1012.3
20260507125016 20 113 4.8 11.3 0.00 0.00 0.00 53 1012.3
20260507124016 20 135 1.6 4.8 0.00 0.00 0.00 56 1012.2
20260507123016 20 113 3.2 12.9 0.00 0.00 0.00 55 1012.2
20260507122016 19 203 1.6 4.8 0.00 0.00 0.00 57 1012.2
20260507121016 20 113 3.2 11.3 0.00 0.00 0.00 58 1012.1
20260507120016 19 113 3.2 8.0 0.00 0.00 0.00 60 1012.0
20260507115016 19 90 3.2 6.4 0.00 0.00 0.00 59 1011.9
20260507114015 19 113 3.2 6.4 0.00 0.00 0.00 60 1011.8
20260507113056 19 113 3.2 11.3 0.00 0.00 0.00 60 1011.9
20260507112016 18 113 3.2 11.3 0.00 0.00 0.00 63 1012.0
20260507111015 19 113 1.6 11.3 0.00 0.00 0.00 61 1012.1
20260507110036 20 113 1.6 9.7 0.00 0.00 0.00 60 1012.0
20260507105015 20 113 3.2 11.3 0.00 0.00 0.00 59 1012.2
20260507104035 20 113 3.2 11.3 0.00 0.00 0.00 59 1012.3
20260507103016 20 225 4.8 11.3 0.00 0.00 0.00 58 1012.4
20260507102015 20 113 3.2 11.3 0.00 0.00 0.00 59 1012.4
20260507101035 20 225 4.8 9.7 0.00 0.00 0.00 61 1012.4
20260507100016 20 113 3.2 9.7 0.00 0.00 0.00 62 1012.4
20260507095016 19 113 3.2 6.4 0.00 0.00 0.00 63 1012.5
20260507094017 19 90 1.6 8.0 0.00 0.00 0.00 61 1012.5
20260507093016 20 90 3.2 8.0 0.00 0.00 0.00 60 1012.5
20260507092017 20 113 3.2 6.4 0.00 0.00 0.00 56 1012.3
20260507091019 20 113 3.2 12.9 0.00 0.00 0.00 54 1012.3
20260507090037 20 113 3.2 11.3 0.00 0.00 0.00 52 1012.3
20260507085059 19 113 3.2 11.3 0.00 0.00 0.00 51 1012.3
20260507084058 19 135 1.6 8.0 0.00 0.00 0.00 52 1012.3
20260507083017 19 203 1.6 8.0 0.00 0.00 0.00 52 1012.2
20260507082017 18 113 1.6 8.0 0.00 0.00 0.00 54 1012.2
20260507081017 18 113 3.2 11.3 0.00 0.00 0.00 54 1012.2
20260507080015 18 113 1.6 6.4 0.00 0.00 0.00 53 1012.3
20260507075058 18 135 3.2 8.0 0.00 0.00 0.00 54 1012.3
20260507074017 17 113 1.6 4.8 0.00 0.00 0.00 54 1012.4
20260507073017 17 225 1.6 6.4 0.00 0.00 0.00 52 1012.4
20260507072017 17 203 1.6 6.4 0.00 0.00 0.00 55 1012.2
20260507071018 16 0.0 1.6 0.00 0.00 0.00 63 1012.0
20260507070017 15 135 1.6 3.2 0.00 0.00 0.00 66 1011.8
20260507065017 13 0.0 1.6 0.00 0.00 0.00 70 1011.7
20260507064017 13 0.0 0.0 0.00 0.00 0.00 72 1011.6
20260507063017 12 0.0 0.0 0.00 0.03 0.00 73 1011.5
20260507062017 12 113 1.6 4.8 0.00 0.05 0.00 76 1011.3
20260507061017 12 0.0 0.0 0.00 0.08 0.00 75 1011.1
20260507060017 11 0.0 1.6 0.00 0.13 0.00 75 1011.2
20260507055017 11 0.0 3.2 0.00 0.13 0.00 77 1011.2
20260507054038 10 0.0 0.0 0.00 0.13 0.00 77 1010.9
20260507053037 10 0.0 0.0 0.00 0.13 0.00 78 1010.9
20260507052037 10 0.0 0.0 0.00 0.13 0.00 79 1010.8
20260507051018 10 0.0 0.0 0.00 0.13 0.00 79 1010.6
20260507050017 10 0.0 0.0 0.00 0.13 0.00 78 1010.7
20260507045017 10 0.0 0.0 0.00 0.13 0.00 77 1010.6
20260507044018 10 0.0 0.0 0.00 0.13 0.00 77 1010.6
20260507043017 10 0.0 0.0 0.00 0.13 0.00 77 1010.5
20260507042016 10 0.0 0.0 0.00 0.13 0.00 77 1010.3
20260507041017 10 0.0 0.0 0.00 0.13 0.00 76 1010.3
20260507040017 10 0.0 0.0 0.00 0.13 0.00 75 1010.2
20260507035018 10 0.0 1.6 0.00 0.13 0.00 76 1010.2
20260507034036 10 0.0 0.0 0.00 0.13 0.00 76 1010.2
20260507033017 10 0.0 0.0 0.00 0.13 0.00 76 1010.2
20260507032037 10 0.0 0.0 0.00 0.13 0.00 76 1010.1
20260507031017 10 0.0 0.0 0.00 0.13 0.00 76 1010.2
20260507030016 10 0.0 0.0 0.00 0.15 0.00 77 1010.2
20260507025016 10 0.0 0.0 0.00 0.18 0.00 78 1010.3
20260507024016 10 0.0 0.0 0.00 0.23 0.00 78 1010.3
20260507023016 10 0.0 0.0 0.00 0.25 0.00 79 1010.2
20260507022017 10 0.0 0.0 0.00 0.28 0.00 79 1010.2
20260507021016 10 0.0 0.0 0.00 0.36 0.00 80 1010.1
20260507020016 10 0.0 1.6 0.00 0.51 0.00 80 1010.0
20260507015016 10 0.0 0.0 0.00 0.61 0.00 80 1009.9
20260507014036 10 0.0 0.0 0.00 0.64 0.00 79 1009.9
20260507013016 10 0.0 0.0 0.00 0.64 0.00 79 1009.9
20260507012018 11 0.0 3.2 0.00 0.64 0.00 79 1009.9
20260507011016 11 0.0 0.0 0.00 0.66 0.00 78 1010.0
20260507010016 11 0.0 0.0 0.00 0.66 0.00 78 1009.8
20260507005016 11 0.0 0.0 0.00 0.71 0.00 77 1009.9
20260507004016 11 0.0 0.0 0.00 0.71 0.00 77 1010.0
20260507003017 11 0.0 0.0 0.00 0.71 0.00 77 1009.9
20260507002016 11 0.0 3.2 0.00 0.71 0.00 77 1009.9
20260507001016 11 0.0 0.0 0.00 0.71 0.00 77 1009.8
20260507000016 11 0.0 1.6 0.00 0.71 0.00 78 1009.8
20260506235016 11 0.0 0.0 0.00 0.71 0.00 78 1009.7
20260506234016 11 0.0 1.6 0.00 0.71 0.00 78 1009.9
20260506233038 11 0.0 0.0 0.00 0.71 0.00 77 1009.9